Location: Newark
(34.0000°S, 64.0000°W)
Time: 08:50:38
(UTC+00:00)

LightSail 2 - Visible Passes

Search period start: 11 December 2019 00:00
Search period end: 21 December 2019 00:00
Orbit: 696 x 729 km, 24.0° (Epoch: 10 December)

Date Brightness Start Highest point End Pass type
(mag) Time Alt. Az. Time Alt. Az. Time Alt. Az.
11 Dec 6.2 07:41:24 20° NW 07:43:27 26° N 07:47:42 10° NE visible
12 Dec 6.6 06:46:53 23° NNE 06:46:53 23° NNE 06:49:41 10° ENE visible
12 Dec 6.4 08:26:28 10° WNW 08:30:27 23° N 08:34:28 10° NE visible
13 Dec 6.2 07:31:24 23° NNW 07:32:30 25° N 07:36:39 10° NE visible
14 Dec 6.9 06:37:04 18° NE 06:37:04 18° NE 06:38:44 10° NE visible
14 Dec 6.6 08:16:03 10° WNW 08:19:28 19° NNW 08:22:58 10° NNE visible
15 Dec 6.4 07:21:51 21° N 07:21:51 21° N 07:25:20 10° NE visible
16 Dec 6.9 08:06:48 12° NW 08:08:24 14° NNW 08:10:54 10° NNE visible
17 Dec 7.2 07:12:53 12° NNE 07:12:53 12° NNE 07:13:39 10° NNE visible
20 Dec 6.8 00:43:37 10° NNW 00:46:10 15° N 00:46:10 15° N visible
